Location: Asheville, NC
(35.6000°N, 82.5500°W)
Time: 04:22:09
(UTC-05:00)

Vanguard 1 - Pass Details

Date: 16 December 2017
Orbit: 649 x 3834 km, 34.3° (Epoch: 17 January)

Event Time Altitude Azimuth Distance (km) Brightness Sun altitude
Rises 16:16:43 0° 281° (W) 5,557 14.6 9.7°
Reaches altitude 10° 16:22:40 10° 263° (W) 3,849 14.3 8.8°
Maximum altitude 16:27:43 16° 230° (SW) 2,816 15.0 7.9°
Drops below altitude 10° 16:31:36 10° 195° (SSW) 2,795 13.3 7.3°
Sets 16:34:53 0° 171° (S) 3,402 13.2 6.8°
